Voltar ao catálogo

CZ-6A DEB

AtivoSSO
NORAD 54965·DEBRIS·🇨🇳 China

Lançado Nov 11, 2022 de Taiyuan Satellite Launch Center

Loading…

Próximas Passagens (próximas 24 horas)

TLE

AtualizadoSource: Space-Track

Época: Sep 14, 2026, 10:18 UTC

1 54965U 22151TE  26257.42952804  .00000176  00000-0  12889-3 0  9991
2 54965  98.8394 238.1837 0087076 140.9320 219.8180 14.06084613196706

Acompanhe CZ-6A DEB em tempo real com AllMySat

Download on the App Store